Current Conditions
Overcast
Conditions



Pressure
1007.92 (hPa) - 29.76 (inHG)
Visibility

6.2 (miles) - 10.0 (km)
Temperature
15  °C
Temperature
14  °C
Dewpoint
94  %
 Humidity
Wind Speed
6  mph
5  kts
10  km/h
2.7  m/s
Wind Direction
N
45°
E
90°
135°
S
180°
225°
W
270°
315°
 30°

North North
East
Airport Data
EGVO
RAF Odiham
Metar :EGVO 201150Z AUTO 03005KT 9999 OVC005/// 15/14 Q1008
Sun 20th June 12:50 pm
Raw Metar Info
Raw METAR is the most common format in the world for the transmission of observational weather data. It is highly standardized through the International Civil Aviation Organization (ICAO), which allows it to be understood throughout most of the world.
API Info
Data Provided by
https://www.checkwx.com/weather/EGVO

Aviation Weather providing METAR, TAF, AIRMET, SIGMET and OUTLOOK Weather Reports
© Info
CSS/SVG/PHP scripts were developed by weather34.com for use in the weather34 template © 2015-2021

Guide Info provided by Metar-Wikipedia